Weather History for KLIC - July, 2013

Change the Weather History Date:

Monday, July 1, 2013

  Actual Average Record
Temperature  
Mean Temperature 63 °F -  
Max Temperature 74 °F - 98 °F (2012)
Min Temperature 51 °F - 44 °F (1997)
Degree Days  
Heating Degree Days 2    
Month to date heating degree days 2  
Cooling Degree Days 0    
Month to date cooling degree days 0  
Growing Degree Days 12 (Base 50)    
Moisture  
Dew Point 51 °F    
Average Humidity 69    
Maximum Humidity 93    
Minimum Humidity 44    
Precipitation  
Precipitation 0.26 in - 0.29 in (2001)
Month to date precipitation 0.26  
Year to date precipitation 6.82  
Sea Level Pressure  
Sea Level Pressure 30.21 in    
Wind  
Wind Speed 7 mph (SE)    
Max Wind Speed 30 mph    
Max Gust Speed 43 mph    
Visibility 9 miles    
Events Rain , Thunderstorm    
T = Trace of Precipitation, MM = Missing Value Source: NWS Daily Summary

Daily Weather History Graph

Daily Weather History Graph

Search for Another Location

Airport or City:

Trip Planner

Search our weather history database for the weather conditions in past years. The results will help you decide how hot, cold, wet, or windy it might be!

Date:

Astronomy

Jul. 01, 2013 Rise Set
Actual Time 5:32 AM MDT 8:25 PM MDT
Civil Twilight 4:59 AM MDT 8:57 PM MDT
Nautical Twilight 4:19 AM MDT 9:37 PM MDT
Astronomical Twilight 3:32 AM MDT 10:24 PM MDT
Moon 1:01 AM MDT (7/1) 2:43 PM MDT (7/1)
Length of Visible Light 15h 57m
Length of Day
14h 53m
Waning Crescent, 35% of the Moon is Illuminated
Jul 1
Waning Crescent
Jul 8
New
Jul 15
First Quarter
Jul 22
Full
Jul 29
Last Quarter

Hourly Weather History & Observations

Time (MDT) Temp. Dew Point Humidity Pressure Visibility Wind Dir Wind Speed Gust Speed Precip Events Conditions
12:55 AM 57.0 °F 53.1 °F 87% 30.14 in 10.0 mi SSW 3.5 mph - N/A   Clear
1:55 AM 57.0 °F 52.0 °F 83% 30.12 in 10.0 mi SW 8.1 mph - N/A   Clear
2:55 AM 55.0 °F 51.1 °F 86% 30.12 in 10.0 mi Calm Calm - N/A   Clear
3:55 AM 57.0 °F 48.9 °F 74% 30.11 in 10.0 mi SW 8.1 mph - N/A   Clear
4:55 AM 53.1 °F 51.1 °F 93% 30.12 in 10.0 mi ESE 3.5 mph - N/A   Clear
5:55 AM 52.0 °F 48.0 °F 86% 30.15 in 10.0 mi ESE 12.7 mph - N/A   Partly Cloudy
6:55 AM 52.0 °F 48.0 °F 86% 30.17 in 10.0 mi SSE 8.1 mph - N/A   Partly Cloudy
7:26 AM 55.4 °F 46.4 °F 72% 30.36 in 10.0 mi ESE 18.4 mph 27.6 mph N/A Thunderstorm Mostly Cloudy
7:45 AM 55.4 °F 48.2 °F 77% 30.36 in 10.0 mi ESE 19.6 mph 24.2 mph N/A   Mostly Cloudy
7:55 AM 55.9 °F 50.0 °F 80% 30.20 in 10.0 mi ESE 12.7 mph 21.9 mph N/A   Mostly Cloudy
8:29 AM 55.4 °F 51.8 °F 88% 30.34 in 10.0 mi SSE 15.0 mph - N/A Thunderstorm Mostly Cloudy
8:47 AM 53.6 °F 51.8 °F 94% 30.35 in 1.8 mi Variable 5.8 mph 31.1 mph 0.00 in Rain , Thunderstorm Heavy Thunderstorms and Rain
8:55 AM 51.1 °F 48.9 °F 92% 30.24 in 2.5 mi ESE 6.9 mph 18.4 mph 0.22 in Rain , Thunderstorm Light Thunderstorms and Rain
9:02 AM 51.8 °F 50.0 °F 94% 30.38 in 6.0 mi SSE 9.2 mph - 0.02 in Rain , Thunderstorm Thunderstorms and Rain
9:15 AM 51.8 °F 51.8 °F 100% 30.39 in 10.0 mi Calm Calm - 0.03 in Thunderstorm Overcast
9:48 AM 55.4 °F 53.6 °F 94% 30.36 in 10.0 mi SW 5.8 mph - 0.04 in   Mostly Cloudy
9:55 AM 55.9 °F 53.1 °F 90% 30.22 in 10.0 mi SW 5.8 mph - 0.04 in   Mostly Cloudy
10:55 AM 61.0 °F 53.1 °F 75% 30.19 in 10.0 mi South 8.1 mph - 0.00 in   Scattered Clouds
11:55 AM 66.9 °F 53.1 °F 61% 30.18 in 10.0 mi SSE 3.5 mph - N/A   Clear
12:55 PM 69.1 °F 52.0 °F 54% 30.17 in 10.0 mi SSE 4.6 mph - N/A   Clear
1:55 PM 70.0 °F 52.0 °F 53% 30.15 in 10.0 mi East 5.8 mph - N/A   Scattered Clouds
2:55 PM 73.0 °F 55.0 °F 53% 30.13 in 10.0 mi SE 9.2 mph - N/A   Scattered Clouds
3:55 PM 72.0 °F 51.1 °F 48% 30.12 in 10.0 mi East 9.2 mph 17.3 mph N/A   Partly Cloudy
4:55 PM 73.0 °F 50.0 °F 44% 30.14 in 10.0 mi ENE 8.1 mph 17.3 mph N/A   Partly Cloudy
5:55 PM 72.0 °F 48.9 °F 44% 30.13 in 10.0 mi East 6.9 mph - N/A   Clear
6:55 PM 70.0 °F 51.1 °F 51% 30.14 in 10.0 mi ESE 13.8 mph - N/A   Clear
7:55 PM 66.0 °F 50.0 °F 56% 30.16 in 10.0 mi SE 8.1 mph - N/A   Clear
8:55 PM 63.0 °F 52.0 °F 67% 30.18 in 10.0 mi SE 5.8 mph - N/A   Mostly Cloudy
9:55 PM 61.0 °F 54.0 °F 78% 30.20 in 10.0 mi SE 4.6 mph - N/A   Scattered Clouds
10:55 PM 57.9 °F 54.0 °F 87% 30.19 in 10.0 mi East 3.5 mph - N/A   Partly Cloudy
11:55 PM 57.9 °F 53.1 °F 84% 30.18 in 10.0 mi ESE 5.8 mph - N/A   Partly Cloudy